Location: Piolenc
(44.1794°N, 4.7641°E)
Time: 04:50:20
(UTC+00:00)

Cosmos 2297 - Pass Details

Date: 27 January 2021
Orbit: 834 x 860 km, 71.0° (Epoch: 27 February)

Event Time Altitude Azimuth Distance (km) Brightness Sun altitude
Exits shadow 05:50:13 10° 323° (NW) 2,516 5.7 -13.3°
Reaches altitude 10° 05:50:15 10° 323° (NW) 2,505 5.7 -13.3°
Maximum altitude 05:55:40 44° 253° (WSW) 1,183 4.1 -12.4°
Drops below altitude 10° 06:01:03 10° 183° (S) 2,486 6.3 -11.4°
Sets 06:03:35 0° 177° (S) 3,415 7.1 -11.0°
